| time (UTC) | temp F | wind direction | speed knots | gust knots | rain 1hr in | rain 24hr in | rain mn in | humidity % | barometer mb |
| 20260508110106 | 63 | 0 | 0.0 | 2.6 | 0.00 | 0.00 | 0.00 | 54 | 1026.0 |
| 20260508104551 | 63 | 0 | 0.0 | 1.7 | 0.00 | 0.00 | 0.00 | 55 | 1026.0 |
| 20260508103104 | 64 | 0 | 0.0 | 0.0 | 0.00 | 0.00 | 0.00 | 52 | 1025.9 |
| 20260508101558 | 66 | 0 | 0.0 | 2.6 | 0.00 | 0.00 | 0.00 | 50 | 1025.8 |
| 20260508100059 | 67 | 0 | 0.0 | 2.6 | 0.00 | 0.00 | 0.00 | 48 | 1025.7 |
| 20260508094551 | 68 | 40 | 0.9 | 3.5 | 0.00 | 0.00 | 0.00 | 47 | 1025.6 |
| 20260508093104 | 68 | 0 | 0.9 | 3.5 | 0.00 | 0.00 | 0.00 | 48 | 1025.6 |
| 20260508091557 | 69 | 0 | 0.9 | 6.1 | 0.00 | 0.00 | 0.00 | 47 | 1025.5 |
| 20260508084558 | 70 | 0 | 0.0 | 5.2 | 0.00 | 0.00 | 0.00 | 44 | 1025.2 |
| 20260508083103 | 71 | 58 | 0.9 | 4.3 | 0.00 | 0.00 | 0.00 | 45 | 1025.2 |
| 20260508081601 | 71 | 101 | 0.9 | 7.0 | 0.00 | 0.00 | 0.00 | 44 | 1025.1 |
| 20260508080056 | 72 | 57 | 0.9 | 5.2 | 0.00 | 0.00 | 0.00 | 44 | 1025.2 |
| 20260508074554 | 72 | 78 | 1.7 | 5.2 | 0.00 | 0.00 | 0.00 | 44 | 1025.2 |
| 20260508073055 | 73 | 202 | 0.9 | 5.2 | 0.00 | 0.00 | 0.00 | 44 | 1025.2 |
| 20260508071558 | 74 | 58 | 0.9 | 9.6 | 0.00 | 0.00 | 0.00 | 44 | 1025.2 |
| 20260508070059 | 74 | 164 | 0.9 | 6.1 | 0.00 | 0.00 | 0.00 | 43 | 1025.2 |
| 20260508064555 | 74 | 104 | 0.9 | 7.0 | 0.00 | 0.00 | 0.00 | 44 | 1025.4 |
| 20260508063103 | 74 | 30 | 0.9 | 6.1 | 0.00 | 0.00 | 0.00 | 44 | 1025.5 |
| 20260508062126 | 74 | 0 | 0.9 | 8.7 | 0.00 | 0.00 | 0.00 | 44 | 1025.5 |
| 20260508053106 | 74 | 36 | 0.0 | 5.2 | 0.00 | 0.00 | 0.00 | 47 | 1026.1 |
| 20260508051554 | 73 | 0 | 0.9 | 7.0 | 0.00 | 0.00 | 0.00 | 47 | 1026.3 |
| 20260508044554 | 72 | 334 | 1.7 | 7.8 | 0.00 | 0.00 | 0.00 | 49 | 1026.7 |
| 20260508043100 | 71 | 313 | 0.9 | 8.7 | 0.00 | 0.00 | 0.00 | 48 | 1026.9 |
| 20260508041602 | 71 | 271 | 0.9 | 4.3 | 0.00 | 0.00 | 0.00 | 49 | 1027.3 |
| 20260508040052 | 71 | 0 | 0.9 | 4.3 | 0.00 | 0.00 | 0.00 | 51 | 1027.6 |
| 20260508034611 | 71 | 360 | 0.9 | 4.3 | 0.00 | 0.00 | 0.00 | 51 | 1027.9 |
| 20260508033058 | 70 | 314 | 0.9 | 5.2 | 0.00 | 0.00 | 0.00 | 52 | 1028.3 |
| 20260508031557 | 69 | 70 | 0.9 | 5.2 | 0.00 | 0.00 | 0.00 | 54 | 1028.4 |
| 20260508030054 | 68 | 288 | 0.9 | 5.2 | 0.00 | 0.00 | 0.00 | 54 | 1028.7 |
| 20260508024555 | 67 | 83 | 0.9 | 5.2 | 0.00 | 0.00 | 0.00 | 56 | 1028.8 |
| 20260508023056 | 66 | 0 | 0.9 | 3.5 | 0.00 | 0.00 | 0.00 | 59 | 1028.9 |
| 20260508021600 | 65 | 144 | 0.0 | 3.5 | 0.00 | 0.00 | 0.00 | 60 | 1029.1 |
| 20260508020100 | 64 | 0 | 0.9 | 6.1 | 0.00 | 0.00 | 0.00 | 62 | 1029.1 |
| 20260508014556 | 64 | 31 | 0.9 | 7.8 | 0.00 | 0.00 | 0.00 | 63 | 1029.3 |
| 20260508013057 | 63 | 231 | 0.9 | 4.3 | 0.00 | 0.00 | 0.00 | 65 | 1029.5 |
| 20260508011603 | 62 | 0 | 0.0 | 4.3 | 0.00 | 0.00 | 0.00 | 68 | 1029.6 |
| 20260508010056 | 60 | 0 | 0.9 | 7.0 | 0.00 | 0.00 | 0.00 | 69 | 1029.8 |
| 20260508004553 | 59 | 104 | 0.0 | 3.5 | 0.00 | 0.00 | 0.00 | 71 | 1030.0 |
| 20260508003057 | 58 | 0 | 0.9 | 4.3 | 0.00 | 0.00 | 0.00 | 72 | 1030.0 |
| 20260508001613 | 57 | 83 | 0.0 | 2.6 | 0.00 | 0.00 | 0.00 | 73 | 1030.0 |
| 20260508000055 | 56 | 0 | 0.0 | 2.6 | 0.00 | 0.00 | 0.00 | 74 | 1030.0 |
| 20260507234553 | 55 | 80 | 0.0 | 3.5 | 0.00 | 0.00 | 0.00 | 75 | 1029.9 |
| 20260507233052 | 54 | 84 | 0.9 | 2.6 | 0.00 | 0.00 | 0.00 | 75 | 1029.6 |
| 20260507231555 | 54 | 0 | 0.0 | 2.6 | 0.00 | 0.00 | 0.00 | 75 | 1029.4 |
| 20260507230053 | 53 | 0 | 0.0 | 1.7 | 0.00 | 0.00 | 0.00 | 75 | 1029.3 |
| 20260507224600 | 53 | 0 | 0.0 | 0.9 | 0.00 | 0.00 | 0.00 | 74 | 1029.2 |
| 20260507223055 | 53 | 0 | 0.0 | 0.9 | 0.00 | 0.00 | 0.00 | 74 | 1029.0 |
| 20260507221551 | 53 | 0 | 0.0 | 0.0 | 0.00 | 0.00 | 0.00 | 73 | 1029.1 |
| 20260507220053 | 54 | 0 | 0.0 | 0.9 | 0.00 | 0.00 | 0.00 | 72 | 1029.1 |
| 20260507214600 | 55 | 0 | 0.0 | 0.9 | 0.00 | 0.00 | 0.00 | 71 | 1029.1 |
| 20260507213058 | 56 | 0 | 0.0 | 2.6 | 0.00 | 0.00 | 0.00 | 69 | 1029.1 |
| 20260507211555 | 56 | 0 | 0.0 | 1.7 | 0.00 | 0.00 | 0.00 | 68 | 1029.0 |
| 20260507210056 | 57 | 0 | 0.0 | 2.6 | 0.00 | 0.00 | 0.00 | 68 | 1029.0 |
| 20260507204559 | 56 | 96 | 0.0 | 2.6 | 0.00 | 0.00 | 0.00 | 67 | 1029.0 |
| 20260507203053 | 57 | 0 | 0.0 | 1.7 | 0.00 | 0.00 | 0.00 | 67 | 1028.9 |
| 20260507201601 | 57 | 0 | 0.0 | 1.7 | 0.00 | 0.00 | 0.00 | 66 | 1028.7 |
| 20260507200108 | 58 | 40 | 0.0 | 2.6 | 0.00 | 0.00 | 0.00 | 66 | 1028.5 |
| 20260507194553 | 58 | 0 | 0.0 | 1.7 | 0.00 | 0.00 | 0.00 | 67 | 1028.5 |
| 20260507193055 | 58 | 0 | 0.0 | 1.7 | 0.00 | 0.00 | 0.00 | 67 | 1028.5 |
| 20260507191557 | 58 | 0 | 0.0 | 2.6 | 0.00 | 0.00 | 0.00 | 66 | 1028.5 |
| 20260507190056 | 58 | 50 | 0.0 | 2.6 | 0.00 | 0.00 | 0.00 | 66 | 1028.5 |
| 20260507184555 | 58 | 103 | 0.0 | 2.6 | 0.00 | 0.00 | 0.00 | 65 | 1028.5 |
| 20260507183053 | 58 | 83 | 0.0 | 3.5 | 0.00 | 0.00 | 0.00 | 66 | 1028.4 |
| 20260507181603 | 58 | 92 | 0.0 | 1.7 | 0.00 | 0.00 | 0.00 | 64 | 1028.3 |
| 20260507180052 | 59 | 90 | 0.0 | 3.5 | 0.00 | 0.00 | 0.00 | 64 | 1028.4 |
| 20260507174556 | 59 | 99 | 0.0 | 3.5 | 0.00 | 0.00 | 0.00 | 63 | 1028.4 |
| 20260507173057 | 59 | 0 | 0.0 | 2.6 | 0.00 | 0.00 | 0.00 | 63 | 1028.4 |
| 20260507171559 | 59 | 71 | 0.0 | 2.6 | 0.00 | 0.00 | 0.00 | 63 | 1028.4 |
| 20260507170055 | 59 | 0 | 0.0 | 2.6 | 0.00 | 0.00 | 0.00 | 62 | 1028.5 |
| 20260507164552 | 60 | 67 | 0.9 | 7.8 | 0.00 | 0.00 | 0.00 | 61 | 1028.3 |
| 20260507163100 | 60 | 98 | 0.0 | 3.5 | 0.00 | 0.00 | 0.00 | 61 | 1028.3 |
| 20260507161601 | 60 | 0 | 0.0 | 3.5 | 0.00 | 0.00 | 0.00 | 61 | 1028.3 |
| 20260507160056 | 60 | 97 | 0.0 | 2.6 | 0.00 | 0.00 | 0.00 | 61 | 1028.2 |
| 20260507154559 | 61 | 71 | 0.0 | 5.2 | 0.00 | 0.00 | 0.00 | 59 | 1028.1 |
| 20260507153101 | 61 | 94 | 0.9 | 6.1 | 0.00 | 0.00 | 0.00 | 59 | 1028.2 |
| 20260507151559 | 61 | 130 | 0.0 | 6.1 | 0.00 | 0.00 | 0.00 | 58 | 1028.2 |
| 20260507150058 | 61 | 0 | 0.9 | 5.2 | 0.00 | 0.00 | 0.00 | 58 | 1028.3 |
| 20260507144554 | 60 | 0 | 0.9 | 4.3 | 0.00 | 0.00 | 0.00 | 58 | 1028.4 |
| 20260507143058 | 61 | 107 | 0.0 | 4.3 | 0.00 | 0.00 | 0.00 | 58 | 1028.2 |
| 20260507141559 | 61 | 55 | 0.9 | 5.2 | 0.00 | 0.00 | 0.00 | 57 | 1028.1 |
| 20260507140104 | 60 | 0 | 0.0 | 5.2 | 0.00 | 0.00 | 0.00 | 59 | 1028.1 |
| 20260507134600 | 60 | 81 | 0.0 | 2.6 | 0.00 | 0.00 | 0.00 | 59 | 1028.1 |
| 20260507133101 | 60 | 0 | 0.0 | 4.3 | 0.00 | 0.00 | 0.00 | 59 | 1028.1 |
| 20260507131602 | 59 | 0 | 0.0 | 1.7 | 0.00 | 0.00 | 0.00 | 60 | 1027.9 |
| 20260507130108 | 59 | 0 | 0.0 | 0.9 | 0.00 | 0.00 | 0.00 | 60 | 1027.8 |
| 20260507124556 | 60 | 0 | 0.0 | 1.7 | 0.00 | 0.00 | 0.00 | 58 | 1027.8 |
| 20260507123053 | 60 | 101 | 0.0 | 1.7 | 0.00 | 0.00 | 0.00 | 58 | 1027.7 |
| 20260507121604 | 60 | 0 | 0.0 | 0.9 | 0.00 | 0.00 | 0.00 | 57 | 1027.8 |
| 20260507120059 | 60 | 0 | 0.0 | 0.0 | 0.00 | 0.00 | 0.00 | 57 | 1027.7 |
| 20260507114611 | 62 | 0 | 0.0 | 2.6 | 0.00 | 0.00 | 0.00 | 54 | 1027.7 |
| 20260507113054 | 63 | 86 | 0.0 | 2.6 | 0.00 | 0.00 | 0.00 | 52 | 1027.6 |
| 20260507111556 | 63 | 0 | 0.0 | 3.5 | 0.00 | 0.00 | 0.00 | 52 | 1027.7 |